�������l�o���
Date,Time,MP-1(��Sv/h),MP-2(��Sv/h),MP-3(��Sv/h),MP-4(��Sv/h),MP-5(��Sv/h),MP-6(��Sv/h),MP-7(��Sv/h),MP-8(��Sv/h),����,����(m/s),���J
2024/02/06,00:00,0.438,0.653,0.422,0.882,0.585,0.289,0.518,0.495,�k��,10.9,�L
2024/02/06,00:10,0.436,0.654,0.422,0.881,0.585,0.287,0.518,0.496,�k�k��,11.4,�L
2024/02/06,00:20,0.437,0.652,0.422,0.885,0.585,0.287,0.518,0.495,�k�k��,11.1,�L
2024/02/06,00:30,0.437,0.652,0.422,0.886,0.585,0.289,0.519,0.495,�k�k��,10.7,�L
2024/02/06,00:40,0.437,0.652,0.421,0.882,0.584,0.287,0.517,0.496,�k�k��,10.3,�L
2024/02/06,00:50,0.435,0.652,0.422,0.886,0.582,0.288,0.521,0.496,�k�k��,11.6,�L
2024/02/06,01:00,0.437,0.652,0.422,0.885,0.584,0.287,0.519,0.497,�k�k��,10.6,�L
2024/02/06,01:10,0.435,0.653,0.422,0.888,0.583,0.288,0.519,0.496,�k�k��,10.7,�L
2024/02/06,01:20,0.436,0.651,0.422,0.886,0.582,0.287,0.520,0.496,�k�k��,11.0,�L
2024/02/06,01:30,0.437,0.651,0.422,0.886,0.582,0.289,0.520,0.497,�k�k��,10.2,�L
2024/02/06,01:40,0.437,0.650,0.422,0.888,0.583,0.288,0.521,0.496,�k�k��,11.7,�L
2024/02/06,01:50,0.437,0.651,0.424,0.889,0.583,0.288,0.521,0.497,�k�k��,11.8,�L
2024/02/06,02:00,0.437,0.651,0.422,0.888,0.583,0.288,0.522,0.496,�k�k��,10.6,�L
2024/02/06,02:10,0.436,0.649,0.423,0.890,0.582,0.289,0.520,0.498,�k�k��,11.3,�L
2024/02/06,02:20,0.436,0.651,0.422,0.889,0.584,0.290,0.522,0.497,�k�k��,10.9,�L
2024/02/06,02:30,0.436,0.649,0.423,0.890,0.583,0.289,0.520,0.498,�k�k��,10.2,�L
2024/02/06,02:40,0.435,0.650,0.422,0.889,0.580,0.288,0.522,0.497,�k�k��,10.3,�L
2024/02/06,02:50,0.435,0.650,0.422,0.891,0.582,0.289,0.522,0.498,�k�k��,10.5,�L
2024/02/06,03:00,0.436,0.649,0.420,0.890,0.582,0.289,0.521,0.497,�k�k��,11.3,�L
2024/02/06,03:10,0.435,0.647,0.422,0.891,0.581,0.288,0.521,0.498,�k�k��,11.3,�L
2024/02/06,03:20,0.434,0.649,0.421,0.890,0.580,0.290,0.521,0.498,�k�k��,13.0,�L
2024/02/06,03:30,0.434,0.648,0.420,0.890,0.579,0.289,0.519,0.498,�k�k��,10.6,�L
2024/02/06,03:40,0.434,0.648,0.422,0.891,0.580,0.288,0.519,0.497,�k�k��,10.8,�L
2024/02/06,03:50,0.434,0.647,0.422,0.891,0.576,0.288,0.518,0.499,�k�k��,10.2,�L
2024/02/06,04:00,0.435,0.648,0.422,0.892,0.578,0.288,0.518,0.497,�k��,10.2,�L
2024/02/06,04:10,0.434,0.647,0.420,0.892,0.580,0.290,0.519,0.499,�k�k��,11.8,��
2024/02/06,04:20,0.434,0.648,0.421,0.889,0.579,0.289,0.519,0.498,�k��,10.8,�L
2024/02/06,04:30,0.435,0.648,0.420,0.891,0.578,0.289,0.519,0.499,�k�k��,10.0,��
2024/02/06,04:40,0.433,0.648,0.420,0.892,0.577,0.287,0.519,0.496,�k�k��,10.5,�L
2024/02/06,04:50,0.433,0.650,0.420,0.894,0.580,0.290,0.521,0.498,�k�k��,10.5,�L
2024/02/06,05:00,0.433,0.648,0.420,0.891,0.580,0.289,0.520,0.497,�k�k��,11.1,�L
2024/02/06,05:10,0.433,0.647,0.419,0.894,0.582,0.288,0.521,0.498,�k��,10.2,�L
2024/02/06,05:20,0.431,0.646,0.420,0.892,0.582,0.287,0.521,0.498,�k�k��,9.4,�L
2024/02/06,05:30,0.433,0.648,0.420,0.893,0.581,0.288,0.522,0.499,�k�k��,12.4,�L
2024/02/06,05:40,0.432,0.649,0.421,0.894,0.579,0.289,0.522,0.499,�k�k��,11.4,�L
2024/02/06,05:50,0.432,0.649,0.421,0.896,0.580,0.288,0.522,0.499,�k�k��,11.7,�L
2024/02/06,06:00,0.432,0.648,0.421,0.893,0.582,0.288,0.522,0.498,�k��,12.1,�L
2024/02/06,06:10,0.432,0.647,0.420,0.894,0.582,0.289,0.524,0.498,�k�k��,9.6,�L
2024/02/06,06:20,0.433,0.646,0.421,0.894,0.580,0.288,0.522,0.498,�k��,10.9,�L
2024/02/06,06:30,0.432,0.648,0.419,0.894,0.581,0.288,0.522,0.500,�k��,9.1,�L
2024/02/06,06:40,0.432,0.647,0.420,0.893,0.581,0.287,0.522,0.499,�k�k��,11.4,��
2024/02/06,06:50,0.429,0.647,0.418,0.893,0.580,0.287,0.521,0.499,�k�k��,9.6,�L
2024/02/06,07:00,0.432,0.646,0.420,0.892,0.581,0.288,0.522,0.500,�k��,11.0,��
2024/02/06,07:10,0.431,0.646,0.421,0.896,0.580,0.289,0.522,0.498,�k�k��,11.3,�L
2024/02/06,07:20,0.430,0.647,0.420,0.895,0.580,0.287,0.523,0.499,�k�k��,10.8,�L
2024/02/06,07:30,0.433,0.646,0.419,0.893,0.580,0.286,0.521,0.499,�k�k��,9.8,�L
2024/02/06,07:40,0.430,0.648,0.420,0.895,0.581,0.288,0.521,0.499,�k�k��,10.3,�L
2024/02/06,07:50,0.430,0.647,0.418,0.895,0.580,0.288,0.521,0.501,�k�k��,9.4,�L
2024/02/06,08:00,0.430,0.647,0.420,0.896,0.581,0.287,0.521,0.498,�k��,9.9,��
2024/02/06,08:10,0.431,0.648,0.420,0.894,0.581,0.288,0.523,0.499,�k�k��,9.1,��
2024/02/06,08:20,0.431,0.647,0.419,0.895,0.580,0.286,0.522,0.499,�k�k��,8.8,��
2024/02/06,08:30,0.430,0.646,0.419,0.896,0.582,0.289,0.520,0.501,�k�k��,9.8,�L
2024/02/06,08:40,0.430,0.647,0.420,0.895,0.583,0.287,0.522,0.500,�k�k��,9.4,��
2024/02/06,08:50,0.431,0.647,0.420,0.896,0.582,0.287,0.524,0.500,�k�k��,9.3,��
2024/02/06,09:00,0.432,0.647,0.420,0.897,0.583,0.287,0.523,0.500,�k�k��,9.8,��
2024/02/06,09:10,0.432,0.648,0.418,0.897,0.582,0.286,0.523,0.500,�k�k��,10.5,��
2024/02/06,09:20,0.431,0.650,0.419,0.898,0.582,0.286,0.523,0.500,�k�k��,10.2,�L
2024/02/06,09:30,0.431,0.649,0.421,0.897,0.582,0.288,0.524,0.500,�k�k��,11.3,�L
2024/02/06,09:40,0.433,0.649,0.422,0.900,0.581,0.288,0.524,0.500,�k�k��,9.8,�L
2024/02/06,09:50,0.434,0.650,0.422,0.900,0.583,0.289,0.524,0.500,�k�k��,9.3,��
2024/02/06,10:00,0.432,0.649,0.422,0.900,0.583,0.288,0.523,0.499,�k�k��,10.3,��
2024/02/06,10:10,0.432,0.649,0.423,0.901,0.584,0.287,0.525,0.501,�k�k��,9.1,��
2024/02/06,10:20,0.434,0.650,0.423,0.899,0.583,0.288,0.524,0.500,�k�k��,8.4,��
2024/02/06,10:30,0.432,0.648,0.423,0.898,0.585,0.287,0.525,0.500,�k�k��,8.9,��
2024/02/06,10:40,0.434,0.650,0.422,0.901,0.585,0.287,0.525,0.499,�k�k��,9.2,��
2024/02/06,10:50,0.433,0.651,0.422,0.900,0.583,0.288,0.525,0.500,�k�k��,9.4,��
2024/02/06,11:00,0.433,0.651,0.421,0.901,0.584,0.288,0.527,0.500,�k�k��,9.7,��
2024/02/06,11:10,0.433,0.652,0.422,0.901,0.584,0.289,0.525,0.501,�k�k��,9.6,��
2024/02/06,11:20,0.435,0.649,0.422,0.899,0.584,0.287,0.526,0.501,�k,8.3,��
2024/02/06,11:30,0.432,0.652,0.423,0.903,0.585,0.287,0.528,0.502,�k�k��,8.2,��
2024/02/06,11:40,0.435,0.650,0.423,0.902,0.584,0.288,0.526,0.501,�k,8.0,��
2024/02/06,11:50,0.434,0.651,0.423,0.902,0.586,0.288,0.528,0.500,�k,8.3,��
2024/02/06,12:00,0.434,0.652,0.424,0.903,0.587,0.287,0.528,0.502,�k,8.7,��
2024/02/06,12:10,0.434,0.650,0.423,0.905,0.587,0.288,0.528,0.502,�k,8.4,��
2024/02/06,12:20,0.435,0.652,0.423,0.904,0.588,0.287,0.527,0.503,�k�k��,8.0,��
2024/02/06,12:30,0.435,0.651,0.425,0.901,0.589,0.287,0.530,0.503,�k,8.7,��
2024/02/06,12:40,0.435,0.653,0.423,0.904,0.589,0.287,0.528,0.505,�k�k��,8.4,�L
2024/02/06,12:50,0.436,0.655,0.424,0.907,0.589,0.289,0.528,0.504,�k�k��,9.0,��
2024/02/06,13:00,0.437,0.653,0.425,0.906,0.590,0.288,0.530,0.502,�k�k��,7.7,��
2024/02/06,13:10,0.436,0.656,0.425,0.905,0.592,0.289,0.529,0.502,�k�k��,8.1,��
2024/02/06,13:20,0.437,0.657,0.424,0.908,0.592,0.289,0.530,0.503,�k�k��,7.5,��
2024/02/06,13:30,0.436,0.657,0.427,0.908,0.593,0.289,0.529,0.505,�k�k��,7.1,��
2024/02/06,13:40,0.438,0.656,0.426,0.908,0.593,0.288,0.530,0.504,�k�k��,7.3,�L
2024/02/06,13:50,0.436,0.656,0.426,0.908,0.595,0.291,0.530,0.503,�k,6.8,��
2024/02/06,14:00,0.439,0.659,0.427,0.908,0.595,0.290,0.531,0.506,�k�k��,6.9,��
2024/02/06,14:10,0.438,0.659,0.428,0.911,0.595,0.291,0.531,0.505,�k�k��,6.6,��
2024/02/06,14:20,0.439,0.659,0.426,0.913,0.596,0.290,0.533,0.506,�k�k��,7.3,��
2024/02/06,14:30,0.440,0.660,0.426,0.911,0.598,0.290,0.532,0.506,�k�k��,7.6,��
2024/02/06,14:40,0.439,0.660,0.428,0.911,0.598,0.290,0.533,0.506,�k�k��,7.6,��
2024/02/06,14:50,0.442,0.661,0.429,0.914,0.598,0.291,0.533,0.505,�k�k��,7.6,��
2024/02/06,15:00,0.440,0.661,0.428,0.912,0.599,0.291,0.535,0.506,�k�k��,7.2,�L
2024/02/06,15:10,0.443,0.662,0.429,0.914,0.600,0.291,0.534,0.507,�k�k��,7.1,��
2024/02/06,15:20,0.440,0.662,0.429,0.912,0.601,0.291,0.534,0.506,�k�k��,6.5,��
2024/02/06,15:30,0.443,0.661,0.430,0.913,0.601,0.290,0.535,0.506,�k�k��,7.0,��
2024/02/06,15:40,0.443,0.662,0.429,0.913,0.601,0.290,0.535,0.506,�k�k��,6.2,��
2024/02/06,15:50,0.441,0.663,0.430,0.914,0.603,0.292,0.533,0.507,�k�k��,7.4,��
2024/02/06,16:00,0.443,0.663,0.428,0.913,0.602,0.292,0.536,0.507,�k�k��,7.4,��
2024/02/06,16:10,0.444,0.666,0.430,0.915,0.603,0.292,0.534,0.506,�k�k��,7.0,��
2024/02/06,16:20,0.444,0.664,0.429,0.914,0.604,0.292,0.535,0.508,�k�k��,7.2,��
2024/02/06,16:30,0.444,0.665,0.430,0.915,0.603,0.293,0.537,0.508,�k�k��,7.3,��
2024/02/06,16:40,0.445,0.664,0.430,0.917,0.604,0.293,0.536,0.506,�k�k��,8.1,��
2024/02/06,16:50,0.444,0.668,0.431,0.915,0.604,0.294,0.536,0.507,�k�k��,7.3,��
2024/02/06,17:00,0.446,0.667,0.432,0.918,0.605,0.293,0.537,0.506,�k�k��,7.2,��
2024/02/06,17:10,0.445,0.666,0.430,0.916,0.603,0.294,0.538,0.507,�k�k��,6.9,��
2024/02/06,17:20,0.447,0.667,0.431,0.918,0.605,0.293,0.536,0.508,�k�k��,5.6,��
2024/02/06,17:30,0.448,0.667,0.430,0.916,0.606,0.294,0.536,0.507,�k��,6.6,��
2024/02/06,17:40,0.447,0.668,0.432,0.917,0.605,0.293,0.537,0.508,�k��,5.7,��
2024/02/06,17:50,0.447,0.668,0.432,0.918,0.606,0.294,0.537,0.508,�k�k��,6.6,��
2024/02/06,18:00,0.447,0.669,0.431,0.917,0.607,0.294,0.536,0.508,�k�k��,7.0,��
2024/02/06,18:10,0.447,0.668,0.431,0.918,0.606,0.293,0.538,0.508,�k�k��,7.1,��
2024/02/06,18:20,0.447,0.670,0.433,0.919,0.608,0.294,0.536,0.507,�k��,6.1,��
2024/02/06,18:30,0.448,0.669,0.433,0.919,0.608,0.295,0.537,0.509,�k��,5.9,��
2024/02/06,18:40,0.447,0.670,0.432,0.919,0.608,0.294,0.536,0.507,�k��,6.0,��
2024/02/06,18:50,0.448,0.669,0.433,0.918,0.608,0.293,0.538,0.508,�k��,6.1,��
2024/02/06,19:00,0.449,0.669,0.432,0.919,0.608,0.294,0.537,0.508,�k��,7.0,��
2024/02/06,19:10,0.449,0.669,0.432,0.918,0.610,0.294,0.537,0.507,�k�k��,6.8,��
2024/02/06,19:20,0.449,0.670,0.433,0.919,0.609,0.294,0.537,0.509,�k�k��,6.7,��
2024/02/06,19:30,0.449,0.672,0.433,0.918,0.608,0.296,0.538,0.507,�k�k��,6.8,��
2024/02/06,19:40,0.449,0.670,0.435,0.920,0.609,0.295,0.536,0.510,�k�k��,6.3,��
2024/02/06,19:50,0.449,0.672,0.434,0.920,0.610,0.295,0.537,0.509,�k��,4.8,��
2024/02/06,20:00,0.449,0.671,0.433,0.919,0.608,0.294,0.538,0.508,�k��,6.0,��
2024/02/06,20:10,0.449,0.673,0.434,0.922,0.611,0.296,0.537,0.510,�k�k��,6.3,��
2024/02/06,20:20,0.450,0.671,0.433,0.918,0.609,0.296,0.538,0.509,�k�k��,6.8,��
2024/02/06,20:30,0.449,0.671,0.435,0.921,0.610,0.296,0.537,0.509,�k�k��,6.7,��
2024/02/06,20:40,0.451,0.673,0.437,0.919,0.610,0.296,0.537,0.509,�k�k��,6.8,��
2024/02/06,20:50,0.451,0.672,0.436,0.921,0.611,0.297,0.536,0.509,�k�k��,7.2,��
2024/02/06,21:00,0.449,0.674,0.433,0.922,0.609,0.296,0.537,0.509,�k�k��,6.8,��
2024/02/06,21:10,0.451,0.673,0.435,0.922,0.611,0.295,0.538,0.510,�k�k��,6.8,��
2024/02/06,21:20,0.453,0.673,0.435,0.920,0.611,0.295,0.538,0.509,�k�k��,6.3,��
2024/02/06,21:30,0.451,0.674,0.434,0.923,0.611,0.295,0.539,0.508,�k�k��,6.7,��
2024/02/06,21:40,0.450,0.673,0.434,0.923,0.612,0.294,0.537,0.509,�k�k��,7.1,��
2024/02/06,21:50,0.452,0.674,0.435,0.924,0.611,0.296,0.537,0.510,�k�k��,6.0,��
2024/02/06,22:00,0.451,0.674,0.435,0.922,0.612,0.295,0.537,0.508,�k�k��,6.0,��
2024/02/06,22:10,0.451,0.674,0.435,0.922,0.611,0.295,0.539,0.509,�k�k��,6.2,��
2024/02/06,22:20,0.449,0.674,0.435,0.921,0.612,0.295,0.538,0.508,�k�k��,7.4,��
2024/02/06,22:30,0.452,0.673,0.436,0.923,0.613,0.295,0.537,0.510,�k�k��,7.3,��
2024/02/06,22:40,0.452,0.674,0.436,0.922,0.613,0.295,0.537,0.508,�k�k��,6.6,��
2024/02/06,22:50,0.451,0.674,0.436,0.921,0.613,0.295,0.538,0.510,�k�k��,6.5,��
2024/02/06,23:00,0.451,0.675,0.435,0.924,0.612,0.296,0.538,0.507,�k��,6.7,��
2024/02/06,23:10,0.451,0.675,0.435,0.922,0.614,0.296,0.538,0.509,�k��,5.1,��
2024/02/06,23:20,0.452,0.675,0.437,0.924,0.613,0.295,0.539,0.509,�k��,6.6,��
2024/02/06,23:30,0.453,0.675,0.437,0.921,0.612,0.296,0.540,0.509,�k��,5.9,��
2024/02/06,23:40,0.452,0.677,0.435,0.921,0.615,0.295,0.537,0.509,�k��,5.3,��
2024/02/06,23:50,0.452,0.675,0.435,0.921,0.613,0.296,0.538,0.511,�k��,7.2,��
